Hourly Data Report for October 03, 2020

VICTORIA UNIVERSITY CS
BRITISH COLUMBIA
Current Station Operator: ECCC - MSC

48°27'25.200" N
123°18'16.600" W
60.10 m
1018598
71783
WYJ

Download Data

Hourly Data (October 2020)
Hourly Data Report for October 3, 2020
TIME
LST
Temp Definition
°C
Dew Point Definition
°C
Rel Hum Definition
%
Precip. Amount Definition
mm

Wind Dir Definition
10's deg

Wind Spd Definition
km/h
Visibility Definition
km
Stn Press Definition
kPa
Hmdx Definition


Wind Chill Definition


Weather Definition


00:00 11.4 11.4 100 0.0 0 1   101.17     LegendNANA
01:00 10.7 10.7 100 0.0 32 1   101.18     LegendNANA
02:00 10.6 10.5 99 0.0 36 3   101.19     LegendNANA
03:00 9.9 9.9 99 0.0 27 1   101.15     LegendNANA
04:00 9.7 9.6 99 0.0 0 1   101.16     LegendNANA
05:00 8.8 8.7 99 0.0   0   101.16     LegendNANA
06:00 8.3 8.2 99 0.0 15 1   101.16     LegendNANA
07:00 9.2 9.1 99 0.0 8 2   101.19     LegendNANA
08:00 10.4 10.4 99 0.0   0   101.21     LegendNANA
09:00 10.8 10.7 99 0.0 14 2   101.21     LegendNANA
10:00 11.4 11.3 99 0.0 12 2   101.21     LegendNANA
11:00 12.0 11.9 99 0.0 13 2   101.20     LegendNANA
12:00 13.6 13.0 96 0.0 11 2   101.15     LegendNANA
13:00 14.3 12.0 87 0.0 11 4   101.10     LegendNANA
14:00 16.5 12.7 78 0.0 10 4   101.06     LegendNANA
15:00 18.3 13.3 72 0.0 22 7   101.01     LegendNANA
16:00 16.7 12.6 77 0.0 23 10   100.96     LegendNANA
17:00 15.4 12.5 83 0.0 24 8   100.93     LegendNANA
18:00 13.5 12.1 91 0.0 23 4   100.92     LegendNANA
19:00 12.6 12.0 96 0.0 24 3   100.94     LegendNANA
20:00 11.9 11.7 99 0.0 23 3   100.99     LegendNANA
21:00 10.7 10.5 99 0.0 25 1   101.01     LegendNANA
22:00 10.2 10.1 99 0.0 19 1   101.05     LegendNANA
23:00 9.7 9.6 99 0.0   0   101.05     LegendNANA

Notes on Data Quality.

Legend

  • E = Estimated
  • M = Missing
  • NA = Not Available*
  • [empty] = Indicates an unobserved value
Date modified: